Ana Sayfa
METAR-TAF:

METAR-TAF

Havaalanları :

Sherman / Denison, Teksas, Amerika Birleşik Devletleri

Enlem: 33-43N, Boylam: 096-40W, yükseklik: 228 m

Güncel hava durumu gözlemi

Rapor saat 21:50 UTC de 21 dakika önce yapıldı.
Rüzgar doğu/kuzeydoğudan 5 kt
Sıcaklık 27°C
Nem 48%
Basınç 1019 hPa
Görüş mesafesi: 16.1 km
3500 ft yükseklikte parçalı bulutlu

METAR: KGYI 282150Z 07005KT 10SM SCT035 27/15 A3009

Saat: 17:11 (22:11 UTC)


TAF: eksik

4.000'den fazla havaalanı için hava durumu gözlemleri ve tahminleri (METAR ve TAF raporları).

Kullanılabilir istasyonlar harita üzerinde sarı ve kırmızı noktalarla gösterilir.

İstasyonun adını görmek için fareyi noktanın üzerinde gezdirin.

Sonrasında hava gözlem ve tahminlerini görmek için tıklayın.

Haritayı değiştirmek için: yaklaştırmak için siyah artı işaretli yeşil düğmeye ve uzaklaştırmak için de eksi işaretli düğmeye hızla tıklayın; bitişik haritalar için yeşil okları kullanın.


METAR-TAF: